STARLINK-4712, 53798

Orbit data source: Space-Track

STARLINK-4712, 53798 is a payload satellite owned by SpaceX/Seattle (US) in LEO that was launched on Sun, 11 Sep 2022 UTC via an FALCON 9 launch vehicle from the Air Force Eastern Test Range (AFETR). Payload-class satellites include a variety of spacecraft equipped with specific instruments for various scientific and technological missions. These include communications satellites like Starlink; space stations such as the ISS; scientific satellites like the Hubble; Earth observation satellites from companies like Planet Labs, Umbra, and HawkEye 360; GPS; miniature CubeSats for education and research; and military/defense satellites.

Loading next visibility...
Identifier
53798, 2022-111AB
Orbit
LEO
Last TLE update
8 hours ago
Origin
Manufacturer
SpaceX/Seattle
Mission
Operational Commercial Communications
Bus & Motor
STARLINK, Unknown motor
Mass
305 kg wet, ~290 kg dry
Launch date (UTC)
2022-09-11 (3 years ago)
Launch vehicle
FALCON 9
Launch site
Air Force Eastern Test Range (AFETR)
Object type
Payload
Rocket body
Debris
Shape & HBR
Box + 1 Pan, 8.86 m
Radar Cross Section
13.562 m², Large (>1 m²)

Expand to show TLE details & history

TLE from 8 hours ago
0 STARLINK-4712
1 53798U 22111AB  25129.46156929  .00000391  00000-0  42619-4 0  9999
2 53798  53.2162 199.4561 0001170  88.1078 272.0049 15.08840127146943
Epoch: 2025-05-09T11:04Z
Definitive object data (Epoch: 2025-05-09T11:04:39.586Z)
Latitude
0.00004°
Longitude
165.77381°
Altitude
540.612 km
Speed
7.593 km/s
True Right ascension
13h 17m 49s
True Declination
0° 00' 00"
Sunlit
Object was in full shadow at TLE epoch
Visualization TLE readout
Latitude
-33.69235°
Longitude
134.60343°
Altitude
550.894 km
Speed
7.586 km/s
Apparent Right ascension
12h 56m 52s
Apparent Declination
-40° 03' 36"
Sunlit
Object is in full shadow
Visualization observer readout
Local Sidereal Time
03:00:53
Azimuth
100.446° ESE
Elevation
-66.365°
Doppler factor
1
Orbital elements
Apogee altitude
540.798 km
Perigee altitude
539.179 km
Semi-major axis
6,918.125 km
Eccentricity
0.000117
Inclination
53.2162°
RAAN
199.4561°
Arg. of periapsis
88.1078°
True anomaly
271.9915°
Mean anomaly
272.0049°
Eccentric anomaly
271.9982°
Mean motion
3.7719 °/min
BSTAR
0.000042619
Orbital period
95.44 mins
Loading maneuver chart data...
Loading SW <> Apogee altitude chart data...
Loading historical data...
Loading historical data...
Loading historical data...
Loading historical data...
Loading historical data...
Loading historical data...
Loading historical data...

STARLINK-4712 Visibility forecast

Observer location: undefined°, undefined°

Span
Click to sort rows by Start time (UTC) header in descending order
Start Az.
Max El. time (UTC)
Max El. Az.
Max El.
End time (UTC)
End Az.
6 mins2025-05-10 06:18:01.384Z182.149° SSW2025-05-10 06:21:01.384Z130.737° SE22.46°2025-05-10 06:24:01.384Z77.606° E
6 mins2025-05-10 07:58:01.384Z262.551° W2025-05-10 08:00:01.384Z316.149° NNW35.733°2025-05-10 08:04:01.384Z40.095° NE
6 mins2025-05-10 12:59:01.384Z336.155° NNW2025-05-10 13:01:01.384Z14.269° NNE25.479°2025-05-10 13:05:01.384Z89.98° E
5 mins2025-05-10 14:39:01.384Z285.789° WNW2025-05-10 14:41:01.384Z223.671° SW35.933°2025-05-10 14:44:01.384Z156.39° SSE
|